GW0378 Weather Reports


Display with metric or nautical units.
time (UTC)temp
F
wind
direction
speed
MPH
gust
MPH
rain 1hr
in
rain 24hr
in
rain mn
in
humidity
%
barometer
mb
20260905081736 50 75 2.0 3.0 0.00 0.00 0.00 94 1017.7
20260905081231 51 90 0.0 5.0 0.00 0.00 0.00 94 1018.0
20260905080731 51 170 2.0 3.0 0.00 0.00 0.00 94 1018.1
20260905080231 51 248 3.0 3.0 0.00 0.00 0.00 93 1017.7
20260905075730 51 31 3.0 3.0 0.00 0.00 0.00 92 1017.6
20260905075229 51 100 2.0 5.0 0.00 0.00 0.00 92 1018.2
20260905074728 51 105 5.0 7.0 0.00 0.00 0.00 92 1017.9
20260905074224 51 120 3.0 7.0 0.00 0.00 0.00 93 1017.7
20260905073719 51 90 1.0 2.0 0.00 0.00 0.00 93 1017.6
20260905073215 51 129 3.0 6.0 0.00 0.00 0.00 94 1017.7
20260905072714 51 126 0.0 3.0 0.00 0.00 0.00 94 1017.4
20260905072210 51 123 0.0 1.0 0.00 0.00 0.00 93 1017.7
20260905071706 51 98 0.0 1.0 0.00 0.00 0.00 93 1017.8
20260905071202 51 103 3.0 4.0 0.00 0.00 0.00 93 1017.6
20260905070656 51 110 4.0 6.0 0.00 0.00 0.00 93 1017.5
20260905070153 51 98 3.0 4.0 0.00 0.00 0.00 93 1017.7
20260905065651 50 99 3.0 3.0 0.00 0.00 0.00 93 1017.8
20260905065145 51 114 0.0 2.0 0.00 0.00 0.00 93 1017.5
20260905064641 51 103 2.0 5.0 0.00 0.00 0.00 94 1017.9
20260905064137 51 85 2.0 3.0 0.00 0.00 0.00 94 1017.9
20260905063635 51 106 1.0 2.0 0.00 0.00 0.00 93 1017.9
20260905063132 51 135 0.0 2.0 0.00 0.00 0.00 93 1017.8
20260905062627 51 176 0.0 3.0 0.00 0.00 0.00 92 1017.8
20260905062126 51 285 0.0 2.0 0.00 0.00 0.00 92 1017.7
20260905061620 50 252 2.0 4.0 0.00 0.00 0.00 92 1017.9
20260905061115 50 131 3.0 9.0 0.00 0.00 0.00 92 1017.7
20260905060610 51 102 5.0 8.0 0.00 0.00 0.00 92 1017.6
20260905060107 51 122 5.0 7.0 0.00 0.00 0.00 91 1017.2
20260905055605 51 81 6.0 9.0 0.00 0.20 0.20 91 1017.6
20260905055100 51 105 4.0 9.0 0.00 0.20 0.20 92 1017.5
20260905054556 50 97 5.0 10.0 0.00 0.20 0.20 93 1017.4
20260905054051 50 76 6.0 9.0 0.00 0.20 0.20 93 1017.5
20260905053550 50 119 2.0 7.0 0.00 0.20 0.20 93 1017.4
20260905053046 50 92 6.0 7.0 0.00 0.20 0.20 93 1017.6
20260905052545 50 103 7.0 8.0 0.00 0.20 0.20 92 1017.5
20260905052040 50 113 4.0 8.0 0.00 0.20 0.20 93 1017.5
20260905051536 50 100 4.0 7.0 0.00 0.20 0.20 93 1017.1
20260905051032 50 96 5.0 8.0 0.00 0.20 0.20 92 1017.5
20260905050528 51 110 6.0 10.0 0.00 0.20 0.20 92 1017.7
20260905050025 51 93 3.0 7.0 0.00 0.20 0.20 92 1017.9
20260905045519 51 98 2.0 8.0 0.00 0.20 0.20 91 1017.8
20260905045015 51 107 4.0 6.0 0.00 0.20 0.20 91 1017.8
20260905044515 51 111 5.0 8.0 0.00 0.20 0.20 91 1017.7
20260905044015 51 112 2.0 5.0 0.00 0.20 0.20 91 1017.9
20260905043513 51 117 3.0 9.0 0.00 0.20 0.20 91 1017.7
20260905043004 51 103 3.0 8.0 0.00 0.20 0.20 91 1017.7
20260905042502 51 83 3.0 4.0 0.00 0.20 0.20 92 1017.7
20260905041958 52 90 2.0 3.0 0.00 0.20 0.20 91 1017.7
20260905041454 52 172 0.0 2.0 0.00 0.20 0.20 90 1017.5
20260905040949 52 105 1.0 2.0 0.00 0.20 0.20 87 1017.4
20260905040448 52 270 0.0 2.0 0.00 0.20 0.20 87 1017.2
20260905035947 52 152 0.0 6.0 0.00 0.20 0.20 88 1017.2
20260905035442 52 103 4.0 9.0 0.00 0.20 0.20 88 1017.4
20260905034940 52 102 4.0 13.0 0.00 0.20 0.20 90 1017.5
20260905034435 52 180 0.0 3.0 0.00 0.20 0.20 91 1017.5
20260905033933 52 41 2.0 3.0 0.00 0.20 0.20 91 1017.8
20260905033428 52 142 0.0 3.0 0.00 0.20 0.20 92 1018.0
20260905032928 52 131 5.0 6.0 0.00 0.20 0.20 92 1017.7
20260905032424 52 131 5.0 10.0 0.00 0.20 0.20 93 1017.6
20260905031919 52 118 7.0 13.0 0.00 0.20 0.20 92 1017.7
20260905031415 52 118 6.0 10.0 0.00 0.20 0.20 92 1017.7
20260905030909 52 116 9.0 12.0 0.00 0.20 0.20 93 1017.7
20260905030400 52 113 7.0 13.0 0.00 0.20 0.20 93 1017.6
20260905025858 52 110 6.0 9.0 0.00 0.20 0.20 93 1017.7
20260905025354 52 115 10.0 12.0 0.00 0.20 0.20 94 1018.1
20260905024850 52 111 7.0 10.0 0.00 0.20 0.20 94 1018.0
20260905024350 52 115 8.0 12.0 0.02 0.20 0.20 94 1018.2
20260905023846 52 126 5.0 10.0 0.02 0.20 0.20 93 1018.0
20260905023341 52 114 7.0 13.0 0.02 0.20 0.20 93 1018.0
20260905022839 53 127 4.0 12.0 0.05 0.20 0.20 92 1017.9
20260905022336 53 127 8.0 12.0 0.02 0.20 0.20 91 1017.8
20260905021830 53 103 6.0 12.0 0.02 0.19 0.19 91 1017.8
20260905021325 53 125 5.0 7.0 0.02 0.19 0.19 92 1017.8
20260905020820 53 128 4.0 8.0 0.00 0.19 0.19 91 1017.9
20260905020315 53 122 5.0 10.0 0.00 0.19 0.19 91 1017.6
20260905015814 54 109 4.0 4.0 0.00 0.19 0.19 91 1017.8
20260905015314 54 82 0.0 1.0 0.00 0.19 0.19 90 1017.7
20260905014813 54 116 4.0 5.0 0.00 0.19 0.19 90 1017.2
20260905014309 54 112 5.0 5.0 0.00 0.19 0.19 92 1017.2
20260905013804 54 95 2.0 2.0 0.00 0.19 0.19 91 1017.1
20260905013300 54 90 1.0 1.0 0.00 0.19 0.19 91 1017.0
20260905012755 54 99 0.0 1.0 0.02 0.19 0.19 90 1016.8
20260905012251 54 99 0.0 2.0 0.07 0.19 0.19 89 1016.6
20260905011747 55 124 2.0 3.0 0.17 0.18 0.18 86 1016.5
20260905011243 56 61 4.0 4.0 0.19 0.18 0.18 82 1016.5
20260905010737 57 315 2.0 6.0 0.17 0.16 0.16 79 1017.1
20260905010232 59 246 10.0 11.0 0.14 0.14 0.14 72 1017.5
20260905005729 61 260 7.0 9.0 0.05 0.13 0.13 62 1016.9
20260905005225 62 256 5.0 10.0 0.00 0.12 0.12 56 1016.1
20260905004719 62 250 4.0 7.0 0.00 0.12 0.12 55 1015.7
20260905004214 62 323 5.0 6.0 0.00 0.12 0.12 53 1015.4
20260905003714 62 292 3.0 6.0 0.00 0.12 0.12 54 1015.0
20260905003210 63 266 3.0 7.0 0.00 0.12 0.12 53 1014.9
20260905002706 63 291 0.0 6.0 0.00 0.12 0.12 53 1014.9
20260905002205 63 315 3.0 6.0 0.00 0.12 0.12 52 1015.0
20260905001701 63 294 0.0 6.0 0.00 0.12 0.12 54 1015.4
20260905001200 63 287 3.0 8.0 0.00 0.12 0.12 53 1015.0
20260905000655 63 253 4.0 7.0 0.00 0.12 0.12 53 1014.9
20260905000151 63 296 3.0 9.0 0.00 0.12 0.12 53 1014.9
20260904235651 63 263 5.0 11.0 0.00 0.12 0.12 52 1014.9
20260904235150 63 268 9.0 14.0 0.00 0.12 0.12 52 1014.8
20260904234646 64 323 2.0 10.0 0.00 0.12 0.12 52 1014.9
20260904234141 64 275 2.0 8.0 0.00 0.12 0.12 50 1015.1
20260904233637 64 303 3.0 8.0 0.00 0.12 0.12 51 1014.8
20260904233133 64 282 5.0 12.0 0.00 0.12 0.12 50 1014.6
20260904232629 65 281 4.0 9.0 0.00 0.12 0.12 50 1014.9
20260904232125 65 347 3.0 6.0 0.00 0.12 0.12 48 1014.6
20260904231620 66 334 3.0 7.0 0.00 0.12 0.12 47 1014.6
20260904231115 68 257 2.0 4.0 0.00 0.12 0.12 48 1014.5
20260904230614 67 254 3.0 11.0 0.00 0.12 0.12 47 1014.6
20260904230110 67 261 4.0 9.0 0.00 0.12 0.12 48 1014.6
20260904225607 67 275 0.0 7.0 0.00 0.12 0.12 48 1014.6
20260904225103 66 270 0.0 10.0 0.00 0.12 0.12 49 1014.6
20260904224557 66 274 5.0 6.0 0.00 0.12 0.12 50 1014.8
20260904224052 65 280 5.0 6.0 0.00 0.12 0.12 50 1014.5
20260904223551 65 20 3.0 4.0 0.00 0.12 0.12 50 1015.1
20260904223047 66 262 5.0 6.0 0.00 0.12 0.12 49 1014.9
20260904222543 65 291 5.0 8.0 0.00 0.12 0.12 51 1014.6
20260904222038 64 278 4.0 11.0 0.00 0.12 0.12 52 1014.8
20260904221532 64 270 3.0 10.0 0.00 0.12 0.12 52 1014.7
20260904221027 64 301 4.0 12.0 0.00 0.12 0.12 53 1014.7
20260904220526 65 298 6.0 11.0 0.00 0.12 0.12 51 1014.5
20260904220023 65 328 2.0 4.0 0.00 0.12 0.12 50 1014.1
20260904215522 65 227 3.0 10.0 0.00 0.12 0.12 51 1014.6
20260904215018 65 279 4.0 13.0 0.00 0.12 0.12 51 1014.6
20260904214513 66 279 3.0 5.0 0.00 0.12 0.12 50 1014.5
20260904214009 66 285 5.0 9.0 0.00 0.12 0.12 50 1014.4
20260904213506 66 310 4.0 7.0 0.00 0.12 0.12 51 1014.2
20260904213004 66 324 3.0 5.0 0.00 0.12 0.12 53 1014.5
20260904212502 66 311 2.0 8.0 0.00 0.12 0.12 51 1014.7
20260904211958 66 331 5.0 7.0 0.00 0.12 0.12 53 1014.6
20260904211452 64 274 5.0 11.0 0.00 0.12 0.12 55 1014.5
20260904210948 65 270 4.0 8.0 0.00 0.12 0.12 53 1014.6
20260904210447 66 335 6.0 8.0 0.00 0.12 0.12 53 1014.6
20260904205943 66 272 5.0 7.0 0.00 0.12 0.12 53 1014.8
20260904205438 65 281 6.0 9.0 0.00 0.12 0.12 53 1014.7
20260904204935 65 270 5.0 6.0 0.00 0.12 0.12 56 1014.8
20260904204431 65 0 3.0 4.0 0.00 0.12 0.12 54 1014.8
20260904203927 66 329 3.0 5.0 0.00 0.12 0.12 55 1014.8
20260904203423 64 180 0.0 5.0 0.00 0.12 0.12 55 1014.9
20260904202918 63 349 5.0 6.0 0.00 0.12 0.12 56 1014.9
20260904202414 62 293 3.0 5.0 0.00 0.12 0.12 57 1014.9
20260904201910 64 4 2.0 5.0 0.00 0.12 0.12 56 1014.9
20260904201405 64 5 3.0 4.0 0.00 0.12 0.12 56 1014.9
20260904200901 63 143 2.0 5.0 0.00 0.12 0.12 57 1014.8
20260904200359 63 321 3.0 5.0 0.00 0.12 0.12 58 1015.0
20260904195854 63 290 2.0 5.0 0.00 0.12 0.12 58 1015.1
20260904195352 63 255 3.0 6.0 0.00 0.12 0.12 62 1015.2
20260904194847 63 261 0.0 5.0 0.00 0.12 0.12 58 1015.0
20260904194346 62 254 1.0 5.0 0.00 0.12 0.12 62 1014.8
20260904193841 61 319 4.0 9.0 0.00 0.12 0.12 60 1014.9
20260904193337 62 337 5.0 6.0 0.00 0.12 0.12 61 1015.1
20260904192832 62 6 3.0 6.0 0.00 0.12 0.12 65 1015.1
20260904192327 63 73 7.0 7.0 0.00 0.12 0.12 63 1015.1
20260904191824 62 297 0.0 6.0 0.00 0.12 0.12 61 1015.1
20260904191320 61 140 0.0 5.0 0.00 0.12 0.12 62 1015.4
20260904190817 60 327 2.0 5.0 0.00 0.12 0.12 65 1015.4
20260904190312 62 210 0.0 6.0 0.00 0.12 0.12 62 1015.2
20260904185808 61 294 3.0 4.0 0.00 0.12 0.12 66 1015.5
20260904185306 60 349 2.0 4.0 0.00 0.12 0.12 65 1015.5
20260904184803 59 334 2.0 2.0 0.00 0.12 0.12 67 1015.4
20260904184258 59 348 4.0 4.0 0.00 0.12 0.12 70 1015.6
20260904183753 59 74 1.0 3.0 0.00 0.12 0.12 69 1015.4
20260904183248 59 8 2.0 6.0 0.00 0.12 0.12 68 1015.6
20260904182743 59 0 4.0 5.0 0.00 0.12 0.12 67 1015.4
20260904182238 60 266 3.0 4.0 0.00 0.12 0.12 66 1015.2
20260904181734 61 305 3.0 5.0 0.00 0.12 0.12 67 1015.5
20260904181233 60 54 0.0 4.0 0.00 0.12 0.12 66 1015.4
20260904180729 59 300 2.0 4.0 0.00 0.12 0.12 68 1015.4
20260904180224 58 270 2.0 3.0 0.00 0.12 0.12 70 1015.7
20260904175723 58 315 2.0 5.0 0.00 0.12 0.12 69 1015.5
20260904175222 57 0 1.0 3.0 0.00 0.12 0.12 70 1015.5
20260904174717 57 281 2.0 4.0 0.00 0.12 0.12 74 1015.7
20260904174213 57 264 2.0 4.0 0.00 0.12 0.12 75 1015.5
20260904173708 58 329 4.0 5.0 0.00 0.12 0.12 74 1015.5
20260904173203 57 285 2.0 3.0 0.00 0.12 0.12 75 1015.5
20260904172700 57 15 2.0 4.0 0.00 0.12 0.12 77 1015.6
20260904172159 57 279 3.0 5.0 0.00 0.12 0.12 77 1015.5
20260904171655 56 254 0.0 4.0 0.00 0.12 0.12 80 1015.7
20260904171154 56 198 0.0 2.0 0.00 0.12 0.12 79 1015.2
20260904170651 56 3 3.0 3.0 0.00 0.12 0.12 79 1015.5
20260904170147 56 154 1.0 2.0 0.00 0.12 0.12 83 1015.4
20260904165645 55 45 3.0 3.0 0.00 0.12 0.12 84 1015.4
20260904165144 55 258 1.0 3.0 0.00 0.12 0.12 82 1015.5
20260904164640 54 90 0.0 3.0 0.00 0.12 0.12 84 1015.2
20260904164135 55 282 3.0 4.0 0.00 0.12 0.12 83 1015.2
20260904163631 54 45 0.0 4.0 0.00 0.12 0.12 85 1015.0
20260904163126 55 60 1.0 4.0 0.00 0.12 0.12 85 1014.9
20260904162625 53 127 0.0 3.0 0.00 0.12 0.12 88 1014.9
20260904162120 53 29 0.0 3.0 0.00 0.12 0.12 89 1014.9
20260904161616 53 8 0.0 2.0 0.00 0.12 0.12 90 1014.9
20260904161111 52 36 2.0 3.0 0.00 0.12 0.12 90 1014.7
20260904160606 51 26 2.0 2.0 0.00 0.12 0.12 89 1014.9
20260904155602 51 15 2.0 3.0 0.00 0.12 0.12 91 1014.8
20260904155056 51 63 2.0 2.0 0.00 0.12 0.12 91 1014.7
20260904154550 51 24 2.0 3.0 0.00 0.12 0.12 92 1014.8
20260904154045 51 99 2.0 3.0 0.00 0.12 0.12 92 1014.8
20260904153544 50 203 0.0 1.0 0.00 0.12 0.12 92 1014.7
20260904153041 50 206 0.0 3.0 0.00 0.12 0.12 93 1014.8
20260904152536 50 246 0.0 2.0 0.00 0.12 0.12 93 1014.4
20260904152031 50 331 0.0 5.0 0.00 0.12 0.12 93 1014.2
20260904151521 50 322 0.0 4.0 0.00 0.12 0.12 95 1014.2
20260904151021 50 286 3.0 4.0 0.00 0.12 0.12 95 1014.5
20260904150520 50 281 6.0 6.0 0.00 0.12 0.12 96 1014.2
20260904150015 50 298 3.0 4.0 0.00 0.12 0.12 96 1014.4
20260904145509 50 260 0.0 4.0 0.00 0.12 0.12 96 1014.2
20260904145005 50 244 3.0 5.0 0.00 0.12 0.12 96 1014.2
20260904144501 50 210 2.0 4.0 0.00 0.12 0.12 96 1013.9
20260904143956 50 180 0.0 2.0 0.00 0.12 0.12 96 1013.8
20260904143452 50 180 0.0 2.0 0.00 0.12 0.12 96 1013.5
20260904142949 50 166 0.0 1.0 0.00 0.12 0.12 96 1013.5
20260904142445 50 221 0.0 3.0 0.00 0.12 0.12 96 1013.2
20260904141944 50 73 2.0 3.0 0.00 0.12 0.12 96 1013.5
20260904141439 50 332 2.0 3.0 0.00 0.12 0.12 96 1013.5
20260904140936 49 15 0.0 0.0 0.00 0.12 0.12 96 1013.5
20260904140435 49 66 0.0 2.0 0.00 0.12 0.12 96 1013.1
20260904135935 49 90 1.0 3.0 0.00 0.12 0.12 95 1013.1
20260904135434 49 56 2.0 3.0 0.00 0.12 0.12 95 1012.9
20260904134931 49 8 0.0 2.0 0.00 0.12 0.12 95 1013.1
20260904134430 49 98 1.0 2.0 0.02 0.12 0.12 95 1013.2
20260904133925 49 101 3.0 4.0 0.02 0.12 0.12 95 1013.1
20260904133420 49 90 2.0 2.0 0.09 0.11 0.11 94 1013.1
20260904132916 49 98 2.0 3.0 0.12 0.11 0.11 94 1013.0
20260904132410 49 90 1.0 2.0 0.12 0.10 0.10 94 1013.0
20260904131910 50 114 1.0 2.0 0.12 0.09 0.09 93 1013.1
20260904131400 49 85 2.0 2.0 0.12 0.08 0.08 93 1012.9
20260904130855 50 90 2.0 2.0 0.17 0.07 0.07 92 1013.0
20260904130354 50 23 0.0 2.0 0.17 0.06 0.06 92 1012.9
20260904125849 50 183 0.0 4.0 0.14 0.04 0.04 92 1012.8
20260904125346 50 270 0.0 2.0 0.09 0.03 0.03 91 1012.9
20260904124844 50 260 2.0 3.0 0.02 0.02 0.02 90 1012.9
20260904124342 50 243 3.0 3.0 0.00 0.02 0.02 90 1012.7
20260904123836 50 168 2.0 3.0 0.00 0.02 0.02 90 1012.8
20260904123331 50 114 0.0 2.0 0.00 0.02 0.02 90 1012.7
20260904122826 50 240 0.0 3.0 0.00 0.02 0.02 90 1012.9
20260904122321 50 324 0.0 2.0 0.00 0.02 0.02 90 1012.6
20260904121816 50 165 0.0 1.0 0.00 0.02 0.02 90 1012.5
20260904121312 51 180 2.0 3.0 0.02 0.02 0.02 89 1012.6
20260904120809 51 305 2.0 4.0 0.02 0.02 0.02 89 1012.4
20260904120303 51 60 0.0 3.0 0.00 0.01 0.01 88 1012.3
20260904115759 51 331 0.0 3.0 0.00 0.01 0.01 88 1012.5
20260904115254 51 306 4.0 4.0 0.00 0.01 0.01 87 1012.1
20260904114748 51 240 0.0 3.0 0.00 0.01 0.01 88 1012.1
20260904114248 51 243 1.0 3.0 0.00 0.01 0.01 89 1012.3
20260904113743 51 198 3.0 3.0 0.00 0.01 0.01 89 1012.0
20260904113242 51 90 0.0 3.0 0.00 0.01 0.01 88 1012.0
20260904112737 51 186 0.0 2.0 0.00 0.01 0.01 87 1011.9
20260904112233 51 85 2.0 3.0 0.00 0.01 0.01 87 1011.5
20260904111729 51 82 3.0 4.0 0.00 0.01 0.01 88 1011.7
20260904111224 51 94 2.0 2.0 0.00 0.01 0.01 87 1011.7
20260904110720 52 7 0.0 3.0 0.00 0.01 0.01 85 1011.6
20260904110219 51 274 5.0 10.0 0.00 0.01 0.01 86 1011.4
20260904105714 51 20 0.0 3.0 0.00 0.01 0.01 91 1011.6
20260904105209 51 72 2.0 3.0 0.00 0.01 0.01 90 1011.6
20260904104704 51 105 3.0 3.0 0.00 0.01 0.01 89 1011.3
20260904104200 51 57 1.0 2.0 0.02 0.01 0.01 89 1011.3
20260904103656 51 69 1.0 1.0 0.02 0.01 0.01 90 1011.1
20260904103151 51 90 1.0 2.0 0.02 0.01 0.01 90 1011.0
20260904102647 50 139 2.0 2.0 0.02 0.01 0.01 90 1010.8
20260904102142 51 21 2.0 5.0 0.02 0.00 0.00 89 1010.7
20260904101639 51 139 2.0 3.0 0.02 0.00 0.00 87 1010.4
20260904101134 51 115 2.0 3.0 0.00 0.00 0.00 86 1010.4
20260904100630 51 335 3.0 5.0 0.00 0.00 0.00 87 1010.5
20260904100125 50 6 0.0 2.0 0.00 0.00 0.00 88 1010.9
20260904095619 50 107 3.0 3.0 0.00 0.00 0.00 88 1010.4
20260904095114 50 109 1.0 1.0 0.00 0.00 0.00 88 1009.7
20260904094609 50 82 0.0 2.0 0.00 0.00 0.00 87 1009.4
20260904094104 50 110 2.0 3.0 0.00 0.00 0.00 87 1009.0
20260904093601 50 94 3.0 3.0 0.00 0.00 0.00 87 1009.1
20260904093101 50 72 2.0 3.0 0.00 0.00 0.00 88 1008.7
20260904092557 50 74 1.0 2.0 0.00 0.00 0.00 88 1008.7
20260904092053 50 82 2.0 3.0 0.00 0.00 0.00 88 1008.5
20260904091549 50 154 0.0 2.0 0.00 0.00 0.00 88 1008.6
20260904091048 50 99 2.0 2.0 0.00 0.00 0.00 87 1008.1
20260904090544 50 81 2.0 3.0 0.00 0.00 0.00 86 1007.9
20260904090039 50 90 2.0 3.0 0.00 0.00 0.00 86 1007.8
20260904085534 50 90 2.0 2.0 0.00 0.00 0.00 86 1007.9
20260904085034 50 98 1.0 3.0 0.00 0.00 0.00 87 1007.7
20260904084530 50 90 2.0 3.0 0.00 0.00 0.00 87 1008.1
20260904084026 50 90 2.0 3.0 0.00 0.00 0.00 87 1007.9
20260904083522 50 105 1.0 3.0 0.00 0.00 0.00 87 1007.7
20260904083017 50 100 2.0 2.0 0.00 0.00 0.00 87 1007.8
20260904082512 50 90 2.0 3.0 0.00 0.00 0.00 86 1007.8
20260904082007 50 105 2.0 3.0 0.00 0.00 0.00 86 1007.4